[[{"header":{"parameterUnit":"m.s-1","parameterCategory":1,"la1":30.2991,"la2":30.254,"lo1":-89.0895,"lo2":-89.0444,"dy":0.0017,"dx":0.0017,"nx":28,"ny":28,"refTime":"2024-09-03T21:00:00:Z","depth":0,"parameterNumber":2,"parameterNumberName":"U-component_of_WINDS"},"data":[0,0,0,0,0,0,0,0,0,0,0,0,0,0,0,0,0,0,0,0,0,0,0,0,0,0,0,0,0,0,0,0,0,0,0,0,0,0,0,0,0,0,0,0,0,0,0,0,0,0,0,0,0,0,0,0,0,0,-5.9286,-5.9287,0,-5.9426,-5.9428,-5.9429,-5.931,-5.9305,-5.93,-5.9295,-5.9447,-5.9455,-5.9464,0,0,0,0,0,0,0,0,0,0,0,0,0,-5.8922,-5.8929,-5.9286,-5.9288,-5.9289,-5.9426,-5.9428,-5.943,-5.9311,-5.9305,-5.9299,-5.9293,-5.9444,-5.9454,-5.9465,0,0,0,0,0,0,0,0,0,0,0,0,0,-5.9073,-5.8931,-5.9285,-5.9246,-5.9244,-5.9425,-5.9428,-5.943,-5.9312,-5.9304,-5.9297,-5.929,-5.9441,-5.9453,-5.9466,-5.9696,0,0,-5.9506,-5.9511,0,0,0,0,0,0,0,0,-5.9064,-5.9086,-5.925,-5.9249,-5.9247,-5.9342,-5.9355,-5.9519,-5.9314,-5.9287,-5.9295,-5.9286,-5.9419,-5.9433,-5.9476,-5.9703,-5.9709,-5.9507,-5.9515,-5.952,-5.9524,0,0,0,0,0,0,0,-5.9054,-5.908,-5.9341,-5.9253,-5.9251,-5.9224,-5.9237,-5.9385,-5.9393,-5.9288,-5.928,-5.9298,-5.9416,-5.9464,-5.9479,-5.9711,-5.9507,-5.9518,-5.9526,-5.9531,-6.0134,-6.0142,0,0,0,0,0,0,-5.9047,-5.9072,-5.9337,-5.9346,-5.9135,-5.9236,-5.9251,-5.932,-5.9391,-5.9395,-5.9304,-5.9292,-5.9445,-5.9464,-5.9484,-5.9758,-5.952,-5.9532,-5.954,-6.0126,-6.0136,-6.0145,0,0,0,0,0,0,-5.9039,-5.9071,-5.9331,-5.9206,-5.9237,-5.925,-5.9329,-5.9326,-5.9373,-5.9403,-5.9404,-5.935,-5.944,-5.9465,-5.9643,-5.9761,-5.9538,-5.955,-6.0117,-6.0129,-6.0141,-6.0308,0,0,0,0,0,0,-5.9029,-5.9069,-5.9156,-5.9209,-5.9244,-5.9488,-5.9336,-5.9334,-5.9395,-5.938,-5.9447,-5.9451,-5.9436,-5.9625,-5.9656,-5.9775,-5.956,-6.0106,-6.0122,-6.0137,-6.0292,-6.0325,-6.0352,0,0,0,0,0,-5.9017,-5.9199,-5.9161,-5.9193,-5.9352,-5.9494,-5.9515,-5.9492,-5.9405,-5.9493,-5.9511,-5.9449,-5.9743,-5.9644,-5.9679,-5.9803,-6.0099,-6.0118,-6.0136,-6.0279,-6.0318,-6.0352,0,0,0,0,0,0,-5.9162,-5.9205,-5.9163,-5.9368,-5.9428,-5.9474,-5.9584,-5.9535,-5.9623,-5.9606,-5.9576,-5.9592,-5.978,-5.9809,-5.9698,-6.0029,-5.9907,-5.9933,-6.0004,-6.0042,-6.0071,-6.0062,-5.9571,0,0,0,0,0,-5.9217,-5.9327,-5.9359,-5.9537,-5.9569,-5.9571,-5.9633,-5.9609,-5.9672,-5.9698,-5.9729,-5.9795,-5.9901,-5.9973,-6.0073,-6.0295,-6.0309,-6.0398,-6.0428,-6.0452,-6.0476,-6.0597,-6.0637,-6.0206,-6.0206,-6.0205,0,0,-5.9334,-5.9371,-5.9442,-5.9567,-5.9611,-5.9727,-5.9594,-5.9723,-5.981,-5.9718,-5.9888,-5.9913,-5.9984,-6.0185,-6.0276,-6.0215,-6.0598,-6.0476,-6.0495,-6.0506,-6.062,-6.0661,-6.0698,-6.0218,-6.0216,-6.0214,0,0,-5.9605,-5.9644,-5.9796,-5.9842,-5.9909,-5.9909,-5.9946,-5.9999,-6.0012,-6.018,-6.0114,-6.0218,-6.0403,-6.0456,-6.0507,-6.0798,-6.0744,-6.0831,-6.099,-6.1108,-6.1142,-6.1172,-6.1277,-6.1315,-6.0854,-6.0855,-6.0855,0,-5.9743,-5.9913,-5.9881,-6.0014,-6.0072,-5.999,-6.0145,-6.0192,-6.0291,-6.0333,-6.0263,-6.0492,-6.0534,-6.0747,-6.0818,-6.0862,-6.0904,-6.0825,-6.1139,-6.1169,-6.1196,-6.1296,-6.1336,-6.0865,-6.0864,-6.0863,-6.0862,0,-6.0079,-6.0198,-6.0313,-6.0407,-6.0477,-6.0621,-6.0612,-6.0687,-6.0658,-6.0666,-6.084,-6.0887,-6.0995,-6.1043,-6.1017,-6.1253,-6.1214,-6.1142,-6.1019,-6.1248,-6.1342,-6.138,-6.088,-6.0876,-6.0873,-6.087,0,0,-6.0449,-6.052,-6.0564,-6.0605,-6.0672,-6.0765,-6.0906,-6.1008,-6.1074,-6.1144,-6.1263,-6.142,-6.1353,-6.1412,-6.139,-6.1494,-6.1723,-6.1409,-6.141,-6.1467,-6.1988,-6.2043,-6.2088,-6.1686,-6.1693,-6.1699,-6.1982,0,-6.0725,-6.0966,-6.0941,-6.1172,-6.1283,-6.1206,-6.1329,-6.1385,-6.1396,-6.1493,-6.1506,-6.1618,-6.1521,-6.1556,-6.1654,-6.1674,-6.1827,-6.1653,-6.1799,-6.1804,-6.1785,-6.2136,-6.2195,-6.246,-6.2019,-6.2025,-6.2029,0,-6.1079,-6.1159,-6.14,-6.145,-6.1496,-6.1606,-6.1698,-6.1791,-6.1853,-6.1854,-6.1918,-6.1879,-6.2022,-6.1894,-6.2092,-6.1974,-6.2032,-6.2051,-6.2061,-6.2075,-6.1932,-6.2163,-6.2544,-6.2585,-6.2086,-6.2082,-6.2078,0,-6.1327,-6.1495,-6.166,-6.1698,-6.176,-6.1839,-6.1869,-6.1923,-6.1987,-6.2068,-6.2109,-6.2207,-6.2262,-6.234,-6.2329,-6.2236,-6.2532,-6.2402,-6.2539,-6.2539,-6.2607,-6.2603,-6.3005,-6.2641,-6.264,-6.2639,-6.2639,0,-6.1639,-6.1791,-6.1772,-6.1875,-6.2043,-6.2012,-6.218,-6.22,-6.2249,-6.2356,-6.2296,-6.2398,-6.2375,-6.2478,-6.247,-6.2637,-6.2661,-6.2668,-6.2665,-6.2675,-6.2674,-6.2714,-6.2696,-6.265,-6.2648,-6.2646,-6.2644,0,-6.1946,-6.1939,-6.2115,-6.2158,-6.2172,-6.2294,-6.2332,-6.243,-6.2434,-6.2571,-6.2601,-6.261,-6.2727,-6.2723,-6.2857,-6.2851,-6.3057,-6.3031,-6.3035,-6.3031,-6.3168,-6.3156,-6.3612,-6.3671,-6.3267,-6.327,-6.3274,0,-6.2146,-6.226,-6.2314,-6.238,-6.2414,-6.2522,-6.2585,-6.2559,-6.2628,-6.2707,-6.2796,-6.2907,-6.2994,-6.3185,-6.3206,-6.3308,-6.3285,-6.3438,-6.3301,-6.3307,-6.329,-6.3284,-6.3296,-6.3466,-6.3471,-6.3474,-6.3477,0,-6.2504,-6.2494,-6.2586,-6.2678,-6.2755,-6.2827,-6.2892,-6.295,-6.2932,-6.3013,-6.313,-6.3197,-6.3332,-6.3444,-6.3541,-6.3575,-6.3525,-6.352,-6.3557,-6.357,-6.3568,-6.3573,-6.3111,-6.351,-6.3507,-6.3505,-6.3503,-6.3501,-6.2765,-6.2862,-6.2915,-6.302,-6.3066,-6.3128,-6.3222,-6.3237,-6.3334,-6.344,-6.3419,-6.3551,-6.3611,-6.3736,-6.3778,-6.3882,-6.3829,-6.3883,-6.3897,-6.3911,-6.3927,-6.3549,-6.39,-6.3899,-6.3898,-6.3897,-6.3897,0,-6.312,-6.315,-6.3246,-6.3338,-6.3421,-6.3362,-6.3432,-6.3506,-6.3622,-6.368,-6.3766,-6.3902,-6.4009,-6.4037,-6.4141,-6.422,-6.42,-6.4248,-6.4244,-6.4252,-6.3968,-6.3926,-6.4263,-6.4263,-6.4263,-6.4263,-6.4263,-6.4263,-6.3315,-6.3478,-6.3475,-6.366,-6.3688,-6.3815,-6.386,-6.3918,-6.3964,-6.4117,-6.4204,-6.422,-6.4267,-6.4374,-6.4471,-6.4476,-6.4519,-6.4577,-6.4574,-6.4309,-6.4272,-6.4237,-6.4198,-6.4586,-6.4586,-6.4849,-6.4852,-6.4854]},{"header":{"parameterUnit":"m.s-1","parameterCategory":1,"la1":30.2991,"la2":30.254,"lo1":-89.0895,"lo2":-89.0444,"dy":0.0017,"dx":0.0017,"nx":28,"ny":28,"refTime":"2024-09-03T21:00:00:Z","depth":0,"parameterNumber":3,"parameterNumberName":"V-component_of_WINDS"},"data":[0,0,0,0,0,0,0,0,0,0,0,0,0,0,0,0,0,0,0,0,0,0,0,0,0,0,0,0,0,0,0,0,0,0,0,0,0,0,0,0,0,0,0,0,0,0,0,0,0,0,0,0,0,0,0,0,0,0,-2.4914,-2.4914,0,-2.4913,-2.4913,-2.4913,-2.4898,-2.4898,-2.4898,-2.4897,-2.4895,-2.4895,-2.4896,0,0,0,0,0,0,0,0,0,0,0,0,0,-2.49,-2.49,-2.4914,-2.4914,-2.4914,-2.4913,-2.4913,-2.4913,-2.4898,-2.4898,-2.4898,-2.4897,-2.4895,-2.4895,-2.4896,0,0,0,0,0,0,0,0,0,0,0,0,0,-2.4903,-2.49,-2.4914,-2.4906,-2.4906,-2.4913,-2.4913,-2.4913,-2.4899,-2.4898,-2.4897,-2.4897,-2.4895,-2.4895,-2.4896,-2.4909,0,0,-2.4897,-2.4897,0,0,0,0,0,0,0,0,-2.4903,-2.4904,-2.4907,-2.4907,-2.4906,-2.4905,-2.4907,-2.4912,-2.4899,-2.4901,-2.4897,-2.4897,-2.4899,-2.4899,-2.49,-2.4909,-2.4909,-2.4897,-2.4897,-2.4897,-2.4898,0,0,0,0,0,0,0,-2.4903,-2.4904,-2.4913,-2.4908,-2.4907,-2.4902,-2.4902,-2.4908,-2.4903,-2.4901,-2.49,-2.49,-2.4898,-2.4899,-2.49,-2.4909,-2.4897,-2.4897,-2.4898,-2.4898,-2.4927,-2.4928,0,0,0,0,0,0,-2.4904,-2.4904,-2.4913,-2.4913,-2.4903,-2.4903,-2.4903,-2.4906,-2.4903,-2.4902,-2.4901,-2.4899,-2.4899,-2.4899,-2.49,-2.4914,-2.4897,-2.4898,-2.4898,-2.4927,-2.4927,-2.4928,0,0,0,0,0,0,-2.4904,-2.4905,-2.4913,-2.4908,-2.4909,-2.4904,-2.4908,-2.4906,-2.4908,-2.4903,-2.4902,-2.4903,-2.4899,-2.4899,-2.4907,-2.4914,-2.4898,-2.4898,-2.4926,-2.4927,-2.4928,-2.4943,0,0,0,0,0,0,-2.4903,-2.4905,-2.4911,-2.4908,-2.4909,-2.4921,-2.4908,-2.4907,-2.4908,-2.4907,-2.4905,-2.4904,-2.4898,-2.4906,-2.4907,-2.4914,-2.4899,-2.4925,-2.4926,-2.4927,-2.4942,-2.4945,-2.4947,0,0,0,0,0,-2.4903,-2.4915,-2.4911,-2.4912,-2.4917,-2.4922,-2.4922,-2.4916,-2.4909,-2.4914,-2.4911,-2.4904,-2.4913,-2.4907,-2.4908,-2.4915,-2.4925,-2.4926,-2.4927,-2.4941,-2.4944,-2.4947,0,0,0,0,0,0,-2.4919,-2.4915,-2.491,-2.4923,-2.4923,-2.4919,-2.4926,-2.492,-2.4922,-2.492,-2.4912,-2.4911,-2.492,-2.4918,-2.4912,-2.4927,-2.4917,-2.4919,-2.4928,-2.493,-2.4933,-2.4932,-2.4899,0,0,0,0,0,-2.4924,-2.4929,-2.4925,-2.4936,-2.4937,-2.4931,-2.4933,-2.4929,-2.4928,-2.4928,-2.4925,-2.4924,-2.4927,-2.4929,-2.4931,-2.4942,-2.494,-2.4947,-2.4949,-2.4951,-2.4952,-2.4956,-2.4959,-2.4932,-2.4932,-2.4932,0,0,-2.4934,-2.4933,-2.4936,-2.4939,-2.4939,-2.4943,-2.4931,-2.4937,-2.494,-2.4929,-2.4935,-2.4933,-2.4932,-2.4941,-2.4944,-2.494,-2.4959,-2.4953,-2.4954,-2.4954,-2.4958,-2.496,-2.4963,-2.4933,-2.4932,-2.4932,0,0,-2.4955,-2.4955,-2.4963,-2.4963,-2.4962,-2.4958,-2.496,-2.4957,-2.4955,-2.4962,-2.4953,-2.4956,-2.4961,-2.496,-2.496,-2.4978,-2.4971,-2.4979,-2.4991,-2.4995,-2.4997,-2.4998,-2.5004,-2.5006,-2.498,-2.498,-2.498,0,-2.4967,-2.4974,-2.4968,-2.4974,-2.4975,-2.4965,-2.4972,-2.4972,-2.4972,-2.4972,-2.4967,-2.4972,-2.497,-2.4978,-2.4982,-2.4983,-2.4984,-2.4979,-2.4997,-2.4999,-2.5,-2.5005,-2.5007,-2.4981,-2.4981,-2.4981,-2.4981,0,-2.4989,-2.4994,-2.5001,-2.5001,-2.5002,-2.5009,-2.5003,-2.5005,-2.5,-2.4996,-2.5002,-2.5,-2.5,-2.5002,-2.4997,-2.5008,-2.5005,-2.4999,-2.4989,-2.5004,-2.5008,-2.501,-2.4983,-2.4982,-2.4982,-2.4982,0,0,-2.502,-2.5016,-2.5018,-2.5017,-2.5015,-2.5018,-2.5024,-2.5025,-2.5026,-2.5026,-2.5029,-2.5033,-2.5026,-2.5026,-2.5021,-2.5025,-2.5037,-2.5017,-2.5017,-2.502,-2.5048,-2.5052,-2.5054,-2.5033,-2.5033,-2.5033,-2.5047,0,-2.5039,-2.5049,-2.5043,-2.5053,-2.5056,-2.5046,-2.5051,-2.5049,-2.5045,-2.5047,-2.5043,-2.5045,-2.5037,-2.5037,-2.504,-2.5035,-2.5043,-2.5034,-2.5035,-2.5035,-2.5034,-2.5057,-2.5062,-2.5075,-2.5049,-2.5049,-2.505,0,-2.5062,-2.5063,-2.5074,-2.5069,-2.507,-2.5075,-2.5074,-2.5076,-2.5073,-2.507,-2.507,-2.5063,-2.5067,-2.5057,-2.5062,-2.5056,-2.5056,-2.5053,-2.5054,-2.5053,-2.5043,-2.5055,-2.5079,-2.5081,-2.5052,-2.5052,-2.5052,0,-2.5082,-2.5086,-2.5092,-2.5092,-2.5087,-2.509,-2.5088,-2.5085,-2.5085,-2.5084,-2.5084,-2.5084,-2.5083,-2.5083,-2.5075,-2.507,-2.508,-2.507,-2.5076,-2.5076,-2.5079,-2.5078,-2.5102,-2.508,-2.508,-2.508,-2.508,0,-2.5103,-2.511,-2.51,-2.5104,-2.5111,-2.5103,-2.5109,-2.5106,-2.5103,-2.5105,-2.5097,-2.5099,-2.5089,-2.509,-2.5084,-2.5088,-2.5088,-2.5085,-2.5083,-2.5085,-2.5085,-2.5084,-2.5083,-2.5081,-2.508,-2.508,-2.508,0,-2.5126,-2.5121,-2.5126,-2.5121,-2.512,-2.5125,-2.512,-2.5122,-2.5118,-2.512,-2.5121,-2.5113,-2.5113,-2.5106,-2.5105,-2.5101,-2.5106,-2.5104,-2.5107,-2.5106,-2.5112,-2.5111,-2.5135,-2.5137,-2.5115,-2.5115,-2.5115,0,-2.514,-2.5144,-2.5139,-2.514,-2.5138,-2.514,-2.514,-2.5132,-2.5133,-2.5129,-2.5132,-2.5131,-2.513,-2.5131,-2.5125,-2.5124,-2.512,-2.5128,-2.5119,-2.5121,-2.5118,-2.5118,-2.5117,-2.513,-2.513,-2.513,-2.513,0,-2.5163,-2.516,-2.5161,-2.516,-2.516,-2.5159,-2.5158,-2.5159,-2.515,-2.515,-2.5151,-2.515,-2.5148,-2.5147,-2.5144,-2.5141,-2.5134,-2.5133,-2.5134,-2.5136,-2.5137,-2.5135,-2.5111,-2.5133,-2.5132,-2.5132,-2.5132,-2.5132,-2.5181,-2.5184,-2.518,-2.5181,-2.5179,-2.5177,-2.5179,-2.5174,-2.5175,-2.5173,-2.5168,-2.5168,-2.5164,-2.516,-2.5157,-2.5157,-2.5152,-2.5154,-2.5154,-2.5155,-2.5155,-2.5138,-2.5156,-2.5156,-2.5156,-2.5156,-2.5156,0,-2.5203,-2.52,-2.5201,-2.5198,-2.5199,-2.5192,-2.5189,-2.519,-2.519,-2.5187,-2.5186,-2.5186,-2.5184,-2.5178,-2.5176,-2.5176,-2.5173,-2.5176,-2.5175,-2.5174,-2.516,-2.5159,-2.5179,-2.5179,-2.5179,-2.5179,-2.5179,-2.5179,-2.5214,-2.5219,-2.5215,-2.5217,-2.5214,-2.5215,-2.5213,-2.5211,-2.5209,-2.5208,-2.5207,-2.5203,-2.5198,-2.5195,-2.5193,-2.5191,-2.519,-2.5194,-2.5191,-2.5178,-2.5175,-2.5173,-2.5172,-2.5194,-2.5194,-2.5205,-2.5205,-2.5205]}]]